Location: Ravencliff
(37.6982°N, 81.4812°W)
Time: 19:57:55
(UTC+00:00)

ACS3 Solar Sail - Pass Details

Date: 20 April 2026
Orbit: 894 x 947 km, 97.2° (Epoch: 12 May)

Event Time Altitude Azimuth Distance (km) Brightness Sun altitude
Rises 06:10:19 0° 16° (NNE) 3,548 5.6 -39.6°
Reaches altitude 10° 06:12:47 10° 20° (NNE) 2,610 4.7 -39.5°
Enters shadow 06:15:43 30° 34° (NE) 1,596 3.3 -39.3°
Exits shadow 06:50:24 -53° 190° (S) 11,327 7.3 -36.8°
